Hourly Data Report for June 27, 2012

HALIFAX STANFIELD INT'L A
NOVA SCOTIA

44°52'48.060" N
63°30'00.050" W
145.40 m
8202250
71395
YHZ

Download Data

Hourly Data (June 2012)
Hourly Data Report for June 27, 2012
TIME
LST
Temp Definition
°C
Dew Point Definition
°C
Rel Hum Definition
%
Precip. Amount Definition
mm

Wind Dir Definition
10's deg

Wind Spd Definition
km/h
Visibility Definition
km
Stn Press Definition
kPa
Hmdx Definition


Wind Chill Definition


Weather Definition


00:00 14.8 14.8 100   15 13 0.6 98.59     Fog
01:00 14.7 14.7 100   16 15 0.6 98.60     Fog
02:00 14.9 14.9 100   18 15 0.8 98.62     Fog
03:00 14.8 14.8 100   17 13 9.7 98.64     Fog
04:00 14.0 14.0 100   18 13 1.6 98.71     Fog
05:00 13.8 13.8 100   17 15 0.8 98.77     Fog
06:00 13.8 13.8 100   17 17 0.8 98.79     Fog
07:00 14.3 14.3 100   18 20 3.2 98.86     Fog
08:00 14.9 14.3 96   18 19 9.7 98.93     Fog
09:00 14.8 14.2 96   18 22 16.1 98.96     Cloudy
10:00 16.4 14.6 89   18 24 19.3 98.95     Mostly Cloudy
11:00 17.6 14.8 84   17 26 24.1 98.97     Mostly Cloudy
12:00 17.6 14.9 84   15 22 24.1 98.94     Mostly Cloudy
13:00 16.9 14.8 87   17 20 24.1 98.92     Mostly Cloudy
14:00 18.3 14.3 77   18 26 24.1 98.88     Mostly Cloudy
15:00 19.2 14.5 74   18 20 24.1 98.85     Mostly Cloudy
16:00 18.5 13.9 75   18 30 24.1 98.86     Mostly Cloudy
17:00 18.6 13.5 72   19 32 24.1 98.84     Mainly Clear
18:00 17.6 12.8 73   18 22 24.1 98.87     Mainly Clear
19:00 17.0 12.5 75   17 22 24.1 98.87     Mainly Clear
20:00 15.1 13.0 87   17 17 24.1 98.86     Mostly Cloudy
21:00 14.4 13.0 91   18 17 24.1 98.88     Mainly Clear
22:00 13.7 12.9 95   16 15 24.1 98.86     Mainly Clear
23:00 14.4 13.5 94   19 20 16.1 98.82     Cloudy

Notes on Data Quality.

Legend

  • E = Estimated
  • M = Missing
  • NA = Not Available*
  • [empty] = Indicates an unobserved value
Date modified: